Location: Kaseke
(18.0171°S, 31.0526°E)
Time: 11:54:26
(UTC+00:00)

Cosmos 2195 Rocket - Pass Details

Date: 14 July 2020
Orbit: 949 x 993 km, 82.9° (Epoch: 07 August)

Event Time Altitude Azimuth Distance (km) Brightness Sun altitude
Rises 02:40:16 0° 358° (N) 3,661 7.7 -24.9°
Reaches altitude 10° 02:42:45 10° 358° (N) 2,725 7.0 -24.4°
Maximum altitude 02:49:02 86° 87° (E) 998 4.5 -22.9°
Drops below altitude 10° 02:55:24 10° 175° (S) 2,769 6.8 -21.5°
Sets 02:57:57 0° 175° (S) 3,725 7.4 -20.9°
